Regional Weather Roundup
Issued by NWS Newport/Morehead, NC

Current Version | Previous Version | Graphics & Text | Print | Product List | Glossary On
Versions: 1 2 3 4 5 6 7 8 9 10 11 12 13 14 15 16 17 18 19 20 21 22 23 24 25 26 27 28 29 30 31 32 33 34 35 36 37 38 39 40 41 42 43 44 45 46 47 48 49 50
000 ASUS42 KMHX 261610 RWRMHX WEATHER ROUNDUP FOR EASTERN NORTH CAROLINA NATIONAL WEATHER SERVICE NEWPORT/MOREHEAD CITY NC 1100 AM EST MON JAN 26 2015 NOTE: "FAIR" INDICATES FEW OR NO CLOUDS BELOW 12,000 FEET WITH NO SIGNIFICANT WEATHER AND/OR OBSTRUCTIONS TO VISIBILITY NCZ015>017-031-032-045>047-102-103-261700- NORTH COAST CITY SKY/WX TMP DP RH WIND PRES REMARKS EDENTON CLOUDY 47 43 86 NE5 29.64F ELIZABETH CITY CLOUDY 48 43 82 N5 29.65F KITTY HAWK CLOUDY 50 47 90 NE3 29.62F MANTEO CLOUDY 50 46 87 CALM 29.63F $$ NCZ045>047-081-094-103-104-261700- CENTRAL COAST CITY SKY/WX TMP DP RH WIND PRES REMARKS FRISCO CLOUDY 51 43 74 CALM 29.63F SWANQUARTER NOT AVBL $$ NCZ095-097-098-100-101-261700- SOUTHERN COAST CITY SKY/WX TMP DP RH WIND PRES REMARKS BEAUFORT CLOUDY 48 45 89 CALM 29.62F CEDAR ISLAND NOT AVBL JACKSONVILLE CLOUDY 48 44 86 W7 29.63F PINEY ISLAND N/A N/A N/A N/A MISG 29.64F WILMINGTON CLOUDY 50 45 83 NW10 29.63F $$ NCZ011>013-027>030-043-044-078>080-089-090>093-098-261700- COASTAL PLAIN CITY SKY/WX TMP DP RH WIND PRES REMARKS AHOSKIE MOSUNNY 44 38 81 N3 29.66F CLINTON CLOUDY 47 43 85 CALM 29.65F ELIZABETHTOWN PTSUNNY 50 42 74 W7 29.65F GOLDSBORO PTSUNNY N/A N/A N/A NE8 29.63F GREENVILLE MOSUNNY 45 41 87 N6 29.68F HAVELOCK CLOUDY 48 44 86 SW6 29.66F KENANSVILLE PTSUNNY 47 42 80 NW5 29.66F KINSTON MOSUNNY 45 41 87 N7 29.65F NEW BERN CLOUDY 48 42 80 CALM 29.67S RICHLANDS CLOUDY 48 41 76 W5 29.65F ROCKY MOUNT CLOUDY 45 41 86 N7 29.65S WASHINGTON CLOUDY 45 41 84 CALM 29.64F WHITEVILLE MOSUNNY 53 42 66 NW6 29.64F $$ AMZ130-135-150-152-154-156-158-170-250-252-270-ANZ085-086-088-633-658-670-261700- MARINE OBSERVATIONS STATION/POSITION TIME TEMP WIND PRES WAVE SWELL AIR SEA DIR/SP/G HT/PER HT/PER (UTC) (F) (DEG/KT/KT) (MB) (FT/S) (FT/S) CHESAPEAKE LIGHT 1500 46 20/ 6/ 7 1006.1 64 E VA BEACH 1600 54 52 50/ 14/ 17 1002.4 3/ 8 2/ 8 DUCK 1600 46 44 20/ 5/ 8 1002.9 2 E DUCK 1600 43 N/A 2/ 9 10 NE DUCK 1600 44 N/A 2/ 8 OREGON INLET 1600 49 47 340/ 4/ 5 1003.3 13E OREGON INLT 1600 46 N/A 2/ 8 2/11 HATTERAS CG 1600 51 54 20/ 3/ 4 1003.7 DIAMOND BUOY 1600 58 71 330/ 10/ 12 1003.4 3/ 8 3/ 8 17 S OCRACOKE NOT AVBL CAPE LOOKOUT 1500 50 CALM / 1 1004.0 BEAUFORT LAB 1600 48 50 190/ 4/ 4 1002.6 27 SE WRIGHTSVLE NOT AVBL 5 SE WRIGHTSVLE 1500 51 51 280/ 12/ 14 1003.9 225 S CAPE HAT 1547 66 73 240/ 29/ 39 1003.4 8/ 6 2/ 9 41 SE CHARLESTON 1600 55 69 270/ 19/ 23 1005.0 6/ 7 $$

USA.gov is the U.S. government's official web portal to all federal, state and local government web resources and services.